Snowfall_Accumulation
0.0 0.0 0.0 0.0 0.0 0.0 0.0 0.0 0.0 0.0 0.0 0.0 0.0 0.0 0.0 0.0 0.0 0.0 0.0 0.0 0.0 0.0
0.0 0.0 0.0 0.0 0.0 0.0 0.0 0.0 0.0 0.0 0.0 0.0 0.0 0.0 0.0 0.0 0.0 0.0 0.0 0.0 0.0 0.0
0.0 0.0 0.0 0.0 0.0 0.0 0.0 0.0 0.0 0.0 0.0 0.0 0.0 0.0 0.0 0.0 0.0 0.0 0.0 0.0 0.0 0.0
0.0 0.0 0.0 0.0 0.0 0.0 0.0 0.0 0.0 0.0 0.0 0.0 0.0 0.0 0.0 0.0 0.0 0.1 0.1 0.0 0.0 0.0
0.0 0.0 0.0 0.0 0.0 0.0 0.0 0.0 0.0 0.0 0.0 0.0 0.0 0.0 0.0 0.0 0.2 0.2 0.0 0.0 0.0 0.0
0.0 0.0 0.0 0.0 0.0 0.0 0.0 0.0 0.0 0.0 0.0 0.0 0.0 0.0 0.0 0.0 0.0 0.0 0.0 0.0 0.0 0.0
0.0 0.0 0.0 0.0 0.0 0.0 0.0 0.0 0.0 0.0 0.0 0.0 0.0 0.0 0.0 0.0 0.0 0.0 0.0 0.0 0.0 0.0
0.0 0.0 0.1 0.3 0.4 0.4 0.3 0.0 0.0 0.0 0.1 0.0 0.0 0.0 0.0 0.0 0.4 0.3 0.0 0.0 0.0 0.0
0.8 1.1 1.3 1.1 0.8 0.5 0.4 0.4 0.4 0.4 0.4 0.4 0.0 nan nan 0.0 0.4 0.5 0.0 0.0 0.0 0.0
1.8 1.8 1.4 1.0 0.8 0.7 0.6 0.6 0.5 0.5 0.4 0.4 0.4 nan nan nan 0.6 0.6 0.0 0.0 0.0 0.0
1.4 2.6 1.4 1.2 1.2 0.8 0.6 0.7 0.6 0.7 0.6 0.4 0.3 nan nan nan 0.4 0.4 0.0 0.0 0.0 0.0
2.0 3.0 1.6 3.6 1.7 1.2 2.0 1.3 2.5 2.2 3.6 2.8 2.4 nan nan 0.8 1.5 1.2 0.9 0.1 0.0 0.1
1.9 4.3 3.4 2.0 2.9 3.3 3.2 2.9 3.6 3.3 2.7 0.8 4.3 nan nan nan 5.1 5.9 3.4 1.8 0.1 0.1
2.0 4.5 2.9 3.3 2.8 4.0 4.4 2.3 4.1 3.8 2.9 3.3 1.7 1.7 nan nan 3.0 5.1 6.7 5.6 3.8 2.0
Water_Equivalent
0.00 0.00 0.00 0.00 0.00 0.00 0.00 0.00 0.00 0.00 0.00 0.00 0.00 0.00 0.00 0.00 0.00 0.00 0.00 0.00 0.00 0.00
0.00 0.00 0.00 0.00 0.00 0.00 0.00 0.00 0.00 0.00 0.00 0.00 0.00 0.00 0.00 0.00 0.00 0.00 0.00 0.00 0.00 0.00
0.00 0.00 0.00 0.00 0.00 0.00 0.00 0.00 0.00 0.00 0.00 0.00 0.00 0.00 0.00 0.00 0.00 0.00 0.00 0.00 0.00 0.00
0.00 0.00 0.00 0.00 0.00 0.00 0.00 0.00 0.00 0.00 0.00 0.00 0.00 0.00 0.00 0.00 0.00 0.02 0.02 0.00 0.00 0.00
0.00 0.00 0.00 0.00 0.00 0.00 0.00 0.00 0.00 0.00 0.00 0.00 0.00 0.00 0.00 0.00 0.03 0.03 0.00 0.00 0.00 0.00
0.00 0.00 0.00 0.00 0.00 0.00 0.00 0.00 0.00 0.00 0.00 0.00 0.00 0.00 0.00 0.00 0.00 0.00 0.00 0.00 0.00 0.00
0.00 0.00 0.00 0.00 0.00 0.00 0.00 0.00 0.00 0.00 0.00 0.00 0.00 0.00 0.00 0.00 0.00 0.00 0.00 0.00 0.00 0.00
0.00 0.00 0.01 0.04 0.06 0.05 0.04 0.00 0.00 0.00 0.02 0.00 0.00 0.00 0.00 0.00 0.05 0.04 0.00 0.00 0.00 0.00
0.10 0.14 0.16 0.14 0.10 0.07 0.06 0.05 0.06 0.06 0.05 0.05 0.00 nan nan 0.00 0.05 0.06 0.00 0.01 0.00 0.00
0.20 0.18 0.14 0.11 0.10 0.08 0.07 0.07 0.06 0.06 0.05 0.05 0.05 nan nan nan 0.08 0.08 0.00 0.00 0.00 0.00
0.15 0.26 0.14 0.12 0.12 0.08 0.07 0.08 0.07 0.08 0.07 0.06 0.04 nan nan nan 0.05 0.05 0.00 0.00 0.00 0.00
0.20 0.30 0.16 0.35 0.16 0.11 0.20 0.14 0.25 0.25 0.39 0.31 0.29 nan nan 0.11 0.20 0.14 0.11 0.01 0.01 0.01
0.19 0.43 0.33 0.19 0.28 0.33 0.32 0.29 0.38 0.34 0.30 0.11 0.45 nan nan nan 0.68 0.67 0.42 0.22 0.02 0.03
0.19 0.45 0.28 0.33 0.27 0.39 0.43 0.23 0.41 0.38 0.29 0.34 0.19 0.20 nan nan 0.39 0.63 0.79 0.67 0.45 0.25
SL_Ratio
nan nan nan nan nan nan nan nan nan nan nan nan nan nan nan nan nan nan nan nan nan nan
nan nan nan nan nan nan nan nan nan nan nan nan nan nan nan nan nan nan nan nan nan nan
nan nan nan nan nan nan nan nan nan nan nan nan nan nan nan nan nan nan nan nan nan nan
nan nan nan nan nan nan nan nan nan nan nan nan nan nan nan nan nan 7.3 7.2 nan nan nan
nan nan nan nan nan nan nan nan nan nan nan nan nan nan nan 7.0 7.3 7.2 8.0 nan nan nan
nan nan nan nan nan nan nan nan nan nan nan nan nan nan nan nan nan nan nan nan nan nan
nan nan nan nan nan nan nan nan nan nan nan nan nan nan nan nan nan nan nan nan nan nan
nan nan 7.1 7.4 7.5 7.5 7.6 nan nan nan 7.8 nan nan nan nan nan 7.2 7.5 nan nan nan nan
7.7 8.2 8.2 8.0 8.0 7.8 7.8 7.7 7.7 8.0 7.9 7.8 nan nan nan 8.3 7.6 7.4 6.9 6.7 5.0 5.0
8.8 9.9 9.8 8.9 8.8 8.7 8.4 8.0 8.2 8.0 7.8 7.9 7.7 nan nan nan 7.4 7.5 6.9 6.0 6.0 5.7
9.9 9.9 10.0 10.0 9.8 9.1 8.6 8.8 8.9 8.4 8.0 7.9 7.8 nan nan nan 7.5 7.7 6.4 6.0 6.7 7.1
9.9 9.9 10.2 10.1 10.6 10.8 10.2 9.4 10.0 8.8 9.2 9.0 8.5 nan nan 7.3 7.8 8.1 8.1 6.8 6.8 6.8
10.1 10.1 10.3 10.5 10.3 10.1 10.0 10.0 9.3 9.9 9.1 7.7 9.6 nan nan nan 7.5 8.8 8.1 8.0 6.7 3.3
10.4 10.1 10.3 10.2 10.1 10.0 10.1 10.3 10.1 10.1 10.0 9.9 8.8 8.7 nan nan 7.7 8.1 8.5 8.4 8.5 7.9